Temp
22 21 21 21 21 20 19 19 19 19 19 19 19 20 19 19 19 19 19 19 19 19 19 19 19 19 19 19 19 20 20 19 20 20 19 19 18 17 17 17 16 16 16
22 22 21 21 21 20 20 20 19 19 19 19 19 19 19 19 19 19 18 18 19 19 19 19 19 19 19 19 19 19 19 19 19 19 19 19 18 18 18 17 16 16 16
22 22 21 21 20 20 20 20 20 19 19 19 19 19 19 19 19 19 19 19 19 19 19 19 19 19 19 19 19 18 19 19 19 19 19 18 18 17 17 16 16 15 15
22 22 21 22 21 20 21 21 21 20 19 19 19 19 19 19 19 19 19 19 19 19 19 19 19 19 19 19 19 18 19 19 19 18 18 18 18 17 16 16 16 15 15
22 21 21 21 21 20 20 21 21 20 19 19 19 19 19 19 19 19 19 19 19 19 18 19 19 19 19 19 18 18 18 18 18 18 18 18 18 17 17 17 15 14 14
21 21 21 21 21 20 20 19 19 19 19 18 18 18 18 18 19 18 18 18 18 18 18 19 18 19 18 18 19 18 18 18 18 18 18 18 17 17 17 16 15 14 14
22 21 21 20 20 19 19 18 18 18 18 18 18 18 18 18 18 18 18 18 18 18 18 18 18 19 19 19 19 18 18 18 18 18 17 17 17 17 16 16 16 15 15
20 21 20 20 20 19 19 19 18 18 19 18 19 18 18 18 18 18 18 18 18 18 18 18 18 18 18 18 18 18 18 17 17 17 17 17 17 17 16 16 15 15 15
20 18 18 18 19 19 19 19 19 19 19 18 18 18 18 18 18 18 18 18 18 18 18 18 18 18 18 18 17 17 17 17 17 17 17 17 17 16 16 15 15 15 15
18 18 18 18 18 18 18 18 18 18 18 17 18 18 18 18 18 18 18 18 18 18 18 18 18 18 17 17 17 16 16 16 16 16 16 16 16 15 15 15 15 14 14
17 17 16 16 15 17 17 18 18 17 17 17 18 17 17 18 18 18 18 18 18 17 18 17 17 17 17 16 16 15 15 15 15 15 15 15 14 14 14 14 14 14 14
17 17 16 14 15 15 16 16 16 16 17 17 16 17 17 17 17 17 17 17 17 17 17 17 17 17 16 15 15 15 14 14 14 14 14 13 13 13 13 13 13 13 13
16 13 13 14 15 15 16 16 16 16 16 16 16 17 16 16 15 16 15 16 17 16 16 16 16 15 15 15 14 14 14 13 13 13 13 13 13 13 13 13 12 12 13
15 14 13 13 14 14 14 14 15 15 15 15 16 16 15 15 15 15 15 15 15 15 15 15 15 14 14 14 14 13 13 13 12 13 13 13 12 12 12 12 12 12 12
14 14 14 13 13 13 14 14 14 14 14 14 15 14 14 14 14 14 15 15 15 15 15 14 13 13 13 13 13 13 13 12 12 12 12 12 12 12 12 11 11 11 11
14 14 14 13 12 12 12 12 13 13 13 13 14 14 14 14 14 14 14 14 14 13 13 13 13 13 13 13 13 13 12 12 11 11 11 11 11 11 11 11 11 10 10
14 14 14 14 13 12 13 12 12 12 12 12 12 12 13 13 13 13 13 13 13 13 13 13 13 13 13 12 12 12 11 11 11 11 11 11 11 10 10 10 10 10 10
13 14 14 14 13 13 13 13 13 12 13 12 12 12 12 12 12 12 12 12 13 12 12 12 12 12 12 12 12 11 11 11 11 11 10 10 10 10 10 10 10 10 10
14 14 14 13 13 13 13 13 13 13 12 12 12 12 12 12 12 12 12 12 13 12 12 12 12 12 12 11 11 11 11 11 11 11 10 10 10 10 10 10 10 10 10
15 14 14 13 13 13 13 13 13 13 13 13 13 12 12 12 12 12 12 12 12 12 12 12 12 12 12 11 11 11 11 11 11 11 11 10 10 10 10 10 10 10 10
14 14 13 13 13 13 13 13 13 13 13 13 13 12 12 12 12 12 12 13 13 13 13 13 12 12 12 12 12 11 11 11 11 10 10 10 10 10 10 10 10 10 10
14 14 14 14 14 14 14 13 13 13 13 13 13 12 12 12 12 13 13 13 13 13 13 13 12 12 12 12 12 11 11 11 11 10 10 10 10 10 10 10 10 10 10
14 14 14 14 14 14 14 14 13 14 14 13 13 13 13 13 13 13 13 14 14 13 13 12 12 12 12 11 11 11 11 11 11 11 11 10 10 10 10 10 10 10 10
14 14 14 14 14 14 14 14 14 14 14 14 14 14 13 13 13 13 14 13 13 13 13 13 13 13 12 12 12 11 11 11 11 11 11 11 11 10 10 10 10 9 9
14 14 14 14 14 15 15 15 15 15 15 14 14 14 14 14 14 14 14 14 13 13 13 13 13 13 13 13 12 12 12 11 11 11 11 11 11 10 10 10 9 9 9
14 14 14 14 15 15 15 15 15 15 15 15 15 15 15 15 14 14 14 14 14 14 13 13 13 13 13 13 13 12 12 12 12 11 11 11 11 10 10 9 9 9 9
Height
1520 1523 1524 1527 1530 1533 1535 1537 1540 1542 1543 1543 1544 1546 1547 1549 1550 1551 1551 1551 1551 1551 1552 1553 1554 1555 1555 1555 1555 1556 1556 1556 1556 1555 1556 1556 1557 1558 1559 1560 1561 1561 1560
1516 1519 1521 1523 1526 1528 1530 1532 1535 1537 1540 1541 1541 1542 1544 1545 1546 1548 1549 1550 1550 1550 1550 1551 1552 1553 1553 1554 1554 1554 1555 1555 1555 1555 1555 1555 1555 1557 1558 1559 1558 1559 1560
1510 1514 1516 1517 1520 1522 1525 1528 1530 1533 1536 1538 1538 1539 1540 1542 1543 1544 1546 1548 1548 1548 1548 1549 1550 1551 1551 1552 1552 1552 1552 1553 1553 1553 1554 1553 1554 1555 1556 1556 1556 1556 1556
1505 1507 1510 1511 1514 1516 1519 1522 1524 1527 1529 1532 1534 1535 1537 1539 1540 1541 1543 1544 1545 1545 1545 1545 1547 1548 1549 1550 1550 1550 1550 1550 1550 1551 1552 1552 1553 1553 1554 1555 1554 1554 1554
1500 1501 1503 1506 1508 1511 1512 1516 1518 1520 1523 1526 1529 1531 1532 1534 1536 1537 1538 1539 1541 1542 1543 1542 1543 1545 1546 1547 1547 1547 1547 1547 1547 1548 1549 1549 1550 1550 1551 1551 1551 1552 1553
1495 1496 1498 1499 1501 1503 1506 1507 1512 1515 1517 1523 1524 1525 1528 1529 1531 1534 1534 1535 1537 1538 1539 1539 1539 1541 1543 1543 1544 1544 1544 1543 1544 1544 1546 1547 1547 1548 1549 1549 1548 1549 1550
1491 1491 1491 1492 1494 1496 1499 1498 1502 1507 1513 1511 1517 1521 1521 1523 1526 1529 1530 1531 1533 1534 1536 1536 1536 1537 1538 1539 1539 1540 1540 1540 1541 1542 1543 1545 1545 1546 1546 1545 1545 1546 1547
1485 1486 1486 1487 1488 1490 1493 1495 1496 1497 1497 1500 1509 1512 1514 1517 1520 1522 1525 1526 1528 1529 1531 1533 1534 1534 1534 1535 1535 1535 1536 1536 1538 1540 1541 1541 1542 1542 1543 1542 1543 1544 1545
1480 1481 1482 1482 1484 1485 1487 1489 1490 1490 1490 1493 1499 1503 1507 1510 1513 1516 1519 1521 1523 1524 1526 1528 1530 1530 1531 1531 1532 1533 1533 1534 1535 1536 1537 1538 1538 1539 1539 1539 1540 1541 1541
1477 1477 1478 1477 1478 1478 1479 1481 1483 1484 1486 1488 1490 1493 1499 1504 1505 1509 1512 1513 1515 1517 1519 1522 1524 1525 1527 1528 1529 1530 1531 1532 1532 1533 1534 1536 1536 1536 1536 1537 1537 1538 1539
1473 1472 1473 1473 1472 1473 1472 1473 1474 1476 1479 1480 1484 1488 1491 1495 1496 1501 1505 1506 1508 1512 1515 1516 1518 1519 1522 1524 1526 1527 1528 1529 1530 1531 1532 1534 1534 1534 1534 1534 1535 1537 1537
1469 1467 1467 1468 1468 1469 1469 1468 1468 1470 1472 1474 1477 1481 1482 1482 1487 1491 1499 1501 1503 1505 1509 1513 1514 1516 1518 1520 1522 1523 1525 1526 1527 1528 1530 1532 1533 1533 1534 1535 1536 1536 1538
1465 1462 1462 1463 1465 1465 1466 1466 1466 1466 1468 1470 1472 1474 1476 1480 1483 1486 1489 1495 1496 1499 1502 1507 1509 1512 1514 1516 1518 1518 1519 1522 1524 1527 1530 1532 1534 1535 1535 1537 1538 1538 1539
1466 1463 1461 1461 1462 1462 1463 1464 1464 1465 1466 1467 1469 1471 1473 1475 1477 1478 1481 1486 1489 1494 1499 1502 1505 1507 1509 1510 1511 1513 1518 1522 1526 1527 1530 1534 1535 1536 1537 1540 1540 1541 1542
1469 1466 1462 1462 1461 1461 1461 1462 1463 1464 1466 1467 1467 1468 1469 1471 1470 1472 1471 1479 1481 1487 1493 1497 1500 1504 1507 1510 1513 1516 1520 1523 1526 1532 1533 1535 1537 1538 1538 1540 1542 1543 1544
1472 1470 1468 1467 1465 1464 1463 1462 1463 1462 1463 1466 1467 1469 1470 1473 1475 1476 1479 1481 1481 1486 1491 1495 1500 1504 1508 1510 1514 1516 1521 1526 1531 1534 1536 1537 1538 1541 1541 1541 1542 1547 1546
1475 1474 1473 1472 1472 1471 1470 1468 1466 1467 1466 1467 1469 1471 1471 1473 1475 1478 1480 1484 1486 1489 1493 1496 1501 1505 1508 1512 1516 1521 1523 1527 1531 1534 1538 1539 1541 1541 1543 1543 1546 1548 1549
1476 1476 1476 1475 1476 1476 1474 1474 1474 1473 1474 1473 1475 1476 1477 1477 1480 1483 1486 1489 1491 1493 1498 1501 1505 1509 1511 1514 1518 1521 1525 1528 1532 1535 1538 1539 1541 1544 1545 1546 1546 1550 1551
1476 1477 1476 1476 1477 1477 1477 1478 1478 1477 1478 1479 1480 1481 1482 1484 1487 1489 1492 1496 1497 1500 1504 1506 1509 1511 1514 1517 1521 1524 1526 1528 1531 1535 1537 1539 1542 1544 1545 1548 1549 1552 1552
1476 1477 1478 1479 1480 1479 1480 1480 1481 1482 1483 1484 1484 1485 1487 1490 1493 1495 1497 1499 1501 1504 1507 1509 1510 1513 1516 1518 1522 1525 1527 1528 1531 1534 1537 1540 1543 1545 1547 1548 1549 1550 1552
1477 1478 1479 1480 1481 1482 1482 1482 1483 1483 1485 1486 1488 1490 1493 1495 1497 1499 1501 1503 1505 1508 1509 1510 1512 1514 1517 1519 1522 1523 1526 1529 1532 1534 1538 1540 1543 1544 1546 1548 1550 1550 1551
1478 1479 1480 1481 1482 1484 1485 1485 1486 1486 1488 1489 1491 1493 1495 1497 1500 1502 1504 1506 1508 1509 1511 1512 1514 1515 1516 1519 1522 1523 1526 1529 1532 1535 1537 1539 1541 1542 1545 1547 1547 1548 1550
1477 1478 1479 1480 1481 1483 1484 1485 1486 1487 1489 1490 1491 1494 1496 1499 1501 1503 1505 1506 1508 1509 1511 1513 1514 1515 1516 1519 1521 1524 1525 1529 1532 1534 1536 1537 1539 1541 1543 1545 1547 1546 1548
1476 1477 1478 1479 1481 1482 1484 1485 1486 1488 1489 1490 1491 1493 1496 1498 1500 1503 1505 1507 1509 1510 1511 1512 1513 1514 1516 1517 1520 1523 1527 1529 1531 1532 1534 1535 1538 1539 1540 1542 1544 1545 1546
1472 1474 1475 1477 1479 1480 1482 1483 1485 1486 1487 1489 1490 1492 1494 1497 1499 1502 1504 1505 1507 1509 1510 1512 1514 1515 1515 1517 1520 1523 1525 1527 1528 1530 1531 1533 1535 1536 1537 1539 1541 1541 1542
1471 1472 1474 1475 1477 1479 1480 1482 1483 1485 1486 1487 1489 1491 1493 1494 1497 1499 1501 1503 1504 1506 1508 1510 1512 1513 1515 1516 1518 1520 1522 1524 1525 1527 1529 1530 1532 1533 1535 1536 1536 1537 1537
Wind_Speed
28 26 26 29 30 30 30 29 25 22 22 22 20 18 18 16 17 16 13 11 11 9 9 9 7 7 7 8 8 7 8 5 5 6 10 10 11 10 8 5 7 7 6
26 31 29 28 27 28 30 30 28 27 24 22 19 16 18 18 19 18 13 12 9 10 10 11 11 10 7 5 5 6 8 7 6 6 8 11 13 10 6 4 7 7 10
34 26 28 29 30 32 29 29 28 27 25 23 22 21 18 19 19 18 17 15 13 10 12 10 12 12 10 9 7 7 9 9 9 8 10 13 13 13 10 6 5 9 6
36 37 35 27 28 33 31 28 29 28 28 26 24 22 18 20 21 18 18 18 16 12 13 15 14 12 12 11 10 10 11 11 11 10 11 13 15 14 12 13 10 11 13
33 38 40 38 30 26 35 32 29 29 29 29 26 24 20 23 24 23 22 19 18 15 14 16 15 14 12 12 13 12 12 12 11 13 15 17 18 17 17 13 12 12 13
21 23 29 37 39 37 34 34 29 27 27 28 28 27 24 21 22 23 22 22 19 18 17 16 16 15 16 15 16 15 13 13 12 13 15 16 16 15 15 16 16 17 16
17 19 20 23 25 32 28 28 32 28 30 29 28 28 26 23 22 23 22 22 22 20 18 15 14 14 14 15 14 13 13 13 12 12 12 13 14 14 15 17 17 16 16
18 22 21 19 21 23 26 30 33 32 23 38 31 27 28 26 24 24 23 24 23 23 21 20 18 17 16 15 14 13 12 12 12 13 14 13 13 13 14 14 13 14 17
18 19 21 23 25 27 29 29 30 30 22 33 36 29 28 27 26 24 24 23 22 23 22 22 21 19 16 15 14 12 11 10 11 11 11 11 10 10 10 12 14 15 18
17 19 21 24 27 27 28 27 27 27 28 32 34 33 32 30 25 26 24 24 24 24 24 23 21 20 16 16 14 12 11 10 10 9 8 8 9 9 9 10 9 10 13
20 22 20 19 18 16 21 22 23 26 28 33 34 32 32 36 28 28 26 27 26 25 25 22 20 18 17 16 16 13 11 10 9 8 7 7 6 5 6 6 4 2 7
14 17 21 18 15 11 12 16 17 23 28 31 35 38 39 35 37 32 29 26 24 22 22 21 19 18 18 18 18 17 13 10 8 7 7 6 6 6 6 6 6 5 5
11 8 9 14 14 14 12 10 10 13 18 23 27 29 35 38 38 37 32 27 24 23 24 22 19 19 19 20 20 21 13 11 12 9 7 9 11 12 11 11 10 9 9
14 6 4 8 13 16 17 15 12 11 12 17 22 24 27 28 32 35 36 29 25 22 22 21 23 23 23 25 19 14 11 10 7 10 15 14 14 14 12 10 10 11 11
14 16 11 2 4 4 9 10 10 11 12 13 15 15 18 20 21 19 20 23 22 23 23 19 17 16 15 13 13 11 10 11 15 16 15 14 14 13 14 13 11 12 13
9 15 17 17 16 10 8 8 5 7 12 12 13 18 17 16 16 15 17 19 20 21 21 19 17 14 14 14 14 15 17 17 16 13 12 13 12 12 14 16 15 13 15
3 5 9 12 15 15 15 16 18 19 17 16 13 12 16 20 19 19 20 20 16 16 15 14 15 16 16 18 19 19 19 16 14 13 13 13 11 12 11 13 12 11 12
7 6 4 4 4 5 6 8 9 11 13 16 15 13 14 18 19 19 18 19 20 18 17 19 19 19 19 19 18 17 16 16 15 14 13 13 12 10 10 9 9 7 9
6 5 2 4 3 4 5 5 5 7 7 9 11 14 17 19 21 21 20 17 18 18 17 17 16 16 16 15 15 14 14 15 15 15 12 13 10 9 11 9 6 6 9
7 7 6 7 6 7 7 7 8 9 9 9 11 13 19 20 18 17 16 15 14 13 12 12 14 14 14 13 13 14 15 15 14 14 15 14 12 9 8 8 5 6 8
9 6 5 4 4 5 6 6 5 5 6 7 9 12 16 16 15 14 14 13 13 12 12 11 11 11 11 11 12 15 14 15 15 15 14 12 9 7 11 9 6 4 8
10 6 4 4 4 3 2 1 3 4 6 7 10 14 17 18 15 11 9 9 10 9 8 8 7 5 8 10 12 15 16 16 16 14 13 10 7 6 7 11 9 9 9
13 10 7 5 5 6 6 3 3 5 6 8 11 16 18 16 14 11 8 8 9 7 8 9 5 5 10 11 12 14 14 16 13 12 10 9 8 5 7 8 8 8 11
15 12 10 10 9 9 8 7 7 8 8 8 11 15 17 17 15 13 9 11 9 9 10 9 7 6 8 13 15 16 15 13 13 11 10 10 9 6 5 6 9 9 10
19 15 13 12 15 14 13 13 11 12 12 10 9 13 16 17 17 16 14 12 12 12 11 10 9 10 8 12 13 13 13 14 14 15 15 13 12 9 6 7 9 10 10
21 19 16 15 16 18 18 17 16 16 16 14 15 16 15 16 19 19 17 17 17 17 18 17 15 13 13 13 15 13 12 12 14 16 16 18 17 17 11 8 10 10 12
Wind_Direction
239 240 239 240 241 244 244 246 247 247 248 248 248 261 238 231 233 236 238 246 271 273 254 247 236 219 220 230 231 233 239 240 269 248 233 235 215 216 229 257 243 251 249
244 244 245 246 247 247 247 247 247 247 249 248 245 241 241 240 231 233 235 243 260 271 241 242 220 220 223 235 251 253 232 249 261 250 239 212 213 210 208 273 293 272 256
247 243 247 247 247 248 248 246 246 244 242 244 242 241 246 232 231 235 238 250 247 253 233 224 212 227 233 247 254 254 260 259 263 246 241 221 211 218 223 223 289 263 277
251 248 253 260 250 247 250 250 245 242 239 240 241 240 240 239 233 234 241 246 242 252 236 230 235 243 245 251 256 264 266 256 247 237 234 224 230 226 228 241 266 259 253
257 254 257 257 261 256 256 252 249 244 243 241 239 238 241 237 239 241 244 246 242 249 238 234 239 247 248 255 265 271 263 250 248 237 234 230 230 229 229 248 254 261 248
261 262 259 259 265 262 268 256 251 246 245 248 242 239 238 242 249 245 242 246 246 240 236 243 240 254 259 263 267 264 253 247 244 241 234 238 239 240 242 252 253 246 234
258 265 261 262 257 260 262 256 252 244 239 235 236 244 243 241 246 243 244 243 239 234 235 242 245 248 259 266 261 251 247 243 238 237 234 232 237 245 248 254 255 250 253
245 254 255 250 249 252 250 252 254 245 261 237 242 237 243 244 245 245 244 242 240 232 237 243 251 256 267 261 252 247 240 235 233 234 239 243 242 241 243 248 256 250 246
259 250 250 249 245 247 251 252 255 257 239 215 236 239 243 238 241 242 240 240 238 234 232 235 248 260 258 248 244 240 237 232 226 222 227 232 235 240 240 238 241 245 241
259 256 254 259 258 253 252 250 246 241 242 226 228 226 239 234 237 241 240 239 240 237 233 237 244 254 248 243 240 231 232 233 227 225 230 246 251 245 240 240 242 244 249
272 268 256 260 266 244 244 245 242 238 231 231 230 228 238 235 231 241 241 239 236 242 241 242 243 243 241 234 232 234 234 225 225 235 236 230 224 222 212 200 196 186 230
282 269 258 255 252 249 239 238 238 235 234 237 231 236 235 234 232 232 247 249 230 231 246 240 242 244 237 225 219 213 220 224 220 201 184 199 203 204 198 211 202 198 227
344 312 263 241 235 244 246 236 222 229 233 239 242 241 233 227 228 241 239 237 224 222 230 235 236 228 222 217 210 209 191 187 170 162 163 144 132 118 111 113 116 122 136
36 8 278 251 242 243 245 243 242 242 227 231 233 237 237 241 240 222 225 222 214 213 215 226 233 229 211 199 184 163 165 162 170 159 147 137 124 118 119 113 117 116 120
56 52 52 327 271 246 220 209 226 226 230 242 241 239 231 216 202 198 193 201 200 208 209 191 167 163 158 161 160 168 168 160 144 148 140 131 123 118 113 113 115 118 115
71 77 69 68 67 78 115 129 169 216 212 206 221 205 196 199 190 191 192 187 177 167 157 157 157 159 163 166 169 159 148 144 148 151 148 146 133 121 111 108 109 117 117
118 95 84 79 80 85 83 86 84 91 103 113 123 139 147 142 141 143 143 142 145 149 151 147 150 149 147 144 142 143 145 148 156 156 156 148 144 131 122 112 108 109 120
163 130 124 111 102 91 84 81 86 93 102 106 108 105 103 121 122 122 122 127 129 125 133 136 138 140 141 143 146 149 150 148 146 148 148 144 141 140 132 128 118 120 127
168 168 172 135 152 123 107 106 101 111 115 124 134 132 129 127 122 120 121 123 125 130 134 135 136 139 144 146 150 155 156 153 150 153 155 154 151 143 142 140 136 142 135
155 139 120 126 126 106 110 117 129 133 139 146 150 149 146 145 140 134 133 131 132 138 146 148 149 154 158 159 164 162 159 157 154 156 158 158 158 159 168 166 169 208 184
166 163 168 163 131 111 98 87 97 120 126 137 144 152 154 149 147 142 140 139 137 135 134 133 145 159 163 163 169 166 171 167 166 162 166 172 176 185 189 185 193 187 196
184 196 214 205 179 178 190 120 65 136 155 161 164 166 163 159 158 154 158 172 165 150 148 142 132 136 175 180 177 174 172 173 171 176 177 186 198 193 198 201 213 207 215
197 208 226 218 206 201 201 209 147 143 154 167 170 172 172 174 172 174 177 167 158 161 182 187 191 198 183 190 191 192 183 175 173 178 183 183 188 200 197 207 219 219 212
212 216 221 214 202 198 207 219 204 184 170 167 183 188 190 190 194 199 200 189 175 154 148 156 166 170 184 183 177 177 180 186 192 184 179 176 170 166 172 219 228 230 223
219 220 223 220 225 233 243 230 216 217 215 210 198 197 199 198 196 200 207 208 203 199 188 178 178 185 178 174 176 184 198 204 211 209 204 205 214 213 222 213 227 235 242
224 228 230 235 242 237 238 235 227 216 219 225 228 222 214 214 214 211 210 218 222 225 224 220 215 201 190 190 197 202 208 215 223 223 224 224 227 224 230 228 227 239 248